Powrót do katalogu

STARLINK-1523

AktywnyŁącznośćVLEO
NORAD 46028·PAYLOAD·🇺🇸 United States

Wystrzelony Aug 7, 2020 z Cape Canaveral Space Force Station

Loading…

Następne Przeloty (najbliższe 24 godziny)

TLE

ŚwieżeSource: CelesTrak SupGP

Epoka: Sep 15, 2026, 01:36 UTC

1 46028C 20055B   26258.06715278  .00061567  00000+0  16424-2 0  2582
2 46028  53.1570 324.4472 0000931 334.1045 286.5294 15.37540566    11

Śledź STARLINK-1523 w czasie rzeczywistym z AllMySat

Download on the App Store